Location: Amsterdam
(30.7274°N, 84.4357°W)
Time: 02:17:55
(UTC+00:00)

Tiros 1 - Pass Details

Date: 21 February 2026
Orbit: 618 x 649 km, 48.4° (Epoch: 13 March)

Event Time Altitude Azimuth Distance (km) Brightness Sun altitude
Rises 21:05:46 0° 286° (WNW) 2,880 11.0 27.9°
Reaches altitude 10° 21:09:24 10° 257° (WSW) 1,971 11.1 27.2°
Maximum altitude 21:11:13 12° 233° (SW) 1,825 11.4 26.9°
Drops below altitude 10° 21:13:02 10° 209° (SSW) 1,970 10.8 26.6°
Sets 21:16:40 0° 179° (S) 2,875 10.9 25.9°
